Regional Weather Roundup
Issued by NWS

Home | Current Version | Previous Version | Graphics & Text | Print | Product List | Glossary Off
Versions: 1 2 3 4 5 6 7 8 9 10 11 12 13 14 15 16 17 18 19 20 21 22 23 24 25 26 27 28 29 30 31 32 33 34 35 36 37 38 39 40 41 42 43 44 45 46 47 48 49 50

000
ASUS43 KDTX 221010
RWRMI
MICHIGAN HOURLY REGIONAL WEATHER ROUNDUP
NATIONAL WEATHER SERVICE DETROIT/PONTIAC MI
600 AM EDT FRI MAY 22 2015

NOTE: "FAIR" INDICATES FEW OR NO CLOUDS BELOW 12,000 FEET WITH NO
SIGNIFICANT WEATHER AND/OR OBSTRUCTION TO VISIBILITY.

MIZ047>049-052>055-059>063-066>070-074>076-081>083-221100-
SOUTHEAST LOWER MICHIGAN

CITY           SKY/WX    TMP DP  RH WIND       PRES   REMARKS
ADRIAN         CLOUDY    52  42  69 N7        30.08R
ALMA           CLEAR     37  30  75 W3        30.11R
ANN ARBOR      MOCLDY    49  36  61 NW6       30.07R
BAD AXE        CLEAR     40  29  66 N7        30.06R
CARO           CLEAR     41  30  66 NW5       30.07R
DETROIT CITY   PTCLDY    51  32  48 N9        30.06R
DETROIT        CLOUDY    52  38  58 NW8       30.08R
FLINT          CLEAR     44  30  57 NW6       30.09R
GROSSE ILE     MOCLDY    52  45  76 NW9       30.05R
HILLSDALE      MOCLDY    49  45  87 N3        30.08S
HOWELL         MOCLDY    45  31  59 NW3       30.08R

CITY           SKY/WX    TMP DP  RH WIND       PRES   REMARKS
JACKSON        PTCLDY    48  31  51 N5        30.09R
LAMBERTVILLE   LGT RAIN  50  43  76 NW5       30.08R
LANSING        MOCLDY    47  28  47 W3        30.11R
LAPEER         FAIR      42  32  66 NW3       30.06R
MASON          MOCLDY    45  31  58 CALM      30.10R
MONROE         CLOUDY    52  43  71 NW9       30.06R
MT. CLEMENS    CLEAR     44  38  77 W5        30.03R
PONTIAC        PTCLDY    45  31  58 W6        30.06R
PORT HOPE        N/A     44  38  79 N8        30.04R
PORT HURON     CLEAR     36  36 100 CALM      30.04S
TRI CITIES     CLEAR     44  26  49 N10       30.09R
MIDLAND        FAIR      36  31  82 CALM      30.09R
TROY           PTCLDY    50  32  49 NW6       30.08R
SAGINAW HB     CLEAR     41  27  56 W5        30.08R
$$
MIZ043>046-050>051-056>058-064>065-071>073-077>080-221100-
SOUTHWEST LOWER MICHIGAN

CITY           SKY/WX    TMP DP  RH WIND       PRES   REMARKS
BATTLE CREEK   PTCLDY    49  29  46 NE8       30.10R
BENTON HARBOR  CLEAR     44  44 100 CALM      30.10R FOG
BIG RAPIDS     CLEAR     36  28  74 CALM      30.11R
COLDWATER      MOCLDY    48  40  74 N6        30.09R
FREMONT        FAIR      37  32  81 CALM      30.12R
HOLLAND        CLEAR     45  36  70 CALM      30.12R
GRAND RAPIDS   MOCLDY    48  32  53 NE6       30.11R
IONIA          CLOUDY    47  26  43 N5        30.11R
KALAMAZOO      PTCLDY    51  29  42 NE5       30.11R
LUDINGTON      CLEAR     34  29  83 CALM      30.14R
MARSHALL       MOCLDY    48  23  36 CALM      30.09R
MOUNT PLEASANT CLEAR     40  27  61 CALM      30.10R
MUSKEGON       PTCLDY    43  30  60 NE5       30.12R
SOUTH HAVEN    PTCLDY    46  41  84 NE3       30.11R
$$
MIZ016>042-221100-
NORTHERN LOWER MICHIGAN

CITY           SKY/WX    TMP DP  RH WIND       PRES   REMARKS
ALPENA         CLEAR     34  29  82 CALM      30.09R
BEAVER ISLAND  CLEAR     29  28  96 CALM      30.13R
BELLAIRE       CLEAR     29  28  95 CALM      30.13R
CADILLAC       CLEAR     28  24  87 NW3       30.10R
CHARLEVOIX     CLEAR     38  34  85 N6        30.15R WCI  33
FRANKFORT      CLEAR     33  27  77 CALM      30.14R
GAYLORD        CLEAR     32  27  81 CALM      30.09R
GRAYLING       CLEAR     27  25  93 CALM      30.11R
HARBOR SPRINGS CLEAR     33  29  86 N6        30.12R WCI  27
HOUGHTON LAKE  CLEAR     37  25  61 NW5       30.10R WCI  33
MANISTEE       CLEAR     28  25  86 CALM      30.14R
OSCODA         CLEAR     38  28  68 NW7       30.07R WCI  33
PELLSTON       CLEAR     29  27  92 W3        30.12R
ROGERS CITY    CLEAR     32  30  90 W3        30.10R
TRAVERSE CITY  CLEAR     32  27  81 CALM      30.11R
$$
MIZ007>008-015-221100-
EASTERN UPPER MICHIGAN

CITY           SKY/WX    TMP DP  RH WIND       PRES   REMARKS
KINROSS        CLEAR     34  25  69 N3        30.12R
MACKINAC ISLAN CLEAR     36  28  75 VRB8      30.10R WCI  29
NEWBERRY       CLEAR     32  28  83 N3        30.13R
S. S. MARIE    CLEAR     33  21  61 CALM      30.11R
MUNISING         N/A     30  25  81 S6        30.16R WCI  24
$$
MIZ004>006-011>014-085-221100-
CENTRAL UPPER MICHIGAN

CITY           SKY/WX    TMP DP  RH WIND       PRES   REMARKS
MANISTIQUE     CLEAR     31  26  82 N5        30.14R WCI  26
ESCANABA       CLEAR     34  21  60 N5        30.15R WCI  30
MENOMINEE      CLEAR     34  27  75 CALM      30.15R
SAWYER-GWINN   CLEAR     30  23  75 N5        30.14R WCI  25
$$
MIZ001>003-009>011-084-221100-
WESTERN UPPER MICHIGAN

CITY           SKY/WX    TMP DP  RH WIND       PRES   REMARKS
IRON MOUNTAIN  CLEAR     28  22  78 N3        30.14R
HOUGHTON       CLEAR     35  23  61 E6        30.15R WCI  30
COPPER HARBOR    N/A     33  29  85 W5        30.17R WCI  29
IRONWOOD       CLEAR     32  28  86 CALM      30.13R
$$

ABBREVIATIONS USED IN REMARKS
   TC - TEMPERATURE IN CELSIUS
  WCI - WIND CHILL INDEX
   HX - HEAT INDEX
  VSB - VISIBILITY




USA.gov is the U.S. government's official web portal to all federal, state and local government web resources and services.